GFSNW_850_rhum_045.txt.gz
RH
73 65 65 61 20 13 18 85 93 78 73 98 86 95 76 56 54 51 49 46 50 54 47 50 52 64 55 47 50 61 51 78 99 87 76 75 75 82 74 91 80 76 82 57
66 68 67 61 29 51 66 84 75 81 83 94 79 58 62 59 55 51 50 46 45 46 49 54 57 60 48 46 52 53 55 80 97 98 72 77 98 83 77 76 76 81 77 56
68 69 65 56 28 60 81 88 95 75 85 72 68 66 59 65 58 57 46 47 44 46 49 41 58 64 52 48 51 47 46 72 76 83 73 77 85 77 73 84 96 74 73 44
71 68 62 56 33 38 58 76 84 85 95 80 78 71 62 58 68 59 51 51 49 52 52 46 56 62 61 53 50 49 60 80 68 61 65 72 71 71 69 96 70 81 59 47
71 70 66 60 50 32 22 86 88 84 84 69 76 71 76 74 67 61 60 56 52 48 59 54 51 60 60 61 59 55 66 92 83 80 61 67 73 70 68 67 62 66 65 65
74 68 64 64 62 54 58 58 70 92 79 66 73 72 72 70 68 61 61 60 61 49 64 58 50 43 42 50 65 67 74 88 92 88 64 66 79 73 66 63 61 59 71 51
75 69 68 68 71 74 72 74 78 76 76 45 55 50 47 56 62 75 69 64 59 58 54 50 45 43 45 49 56 53 80 82 91 93 78 94 52 50 56 56 54 56 54 51
74 72 74 79 77 78 77 75 72 82 84 57 44 41 43 58 70 73 70 80 78 61 60 62 68 69 60 54 51 52 58 70 85 87 82 66 58 59 58 65 63 52 52 50
74 76 79 82 82 81 83 88 80 87 89 73 52 52 56 70 87 83 80 73 72 69 81 78 76 78 68 75 67 52 53 57 75 85 80 90 63 48 45 49 82 51 46 49
80 81 79 88 85 84 85 91 87 86 89 76 74 68 69 60 59 66 79 64 73 79 90 84 81 71 54 81 79 82 75 74 89 87 87 69 48 51 49 84 70 55 47 45
90 90 86 87 86 83 89 97 95 95 93 81 77 71 78 66 56 64 60 75 87 92 94 89 88 80 66 60 60 77 83 88 91 84 83 87 56 61 73 64 60 59 54 50
86 91 87 81 84 92 94 98 99 100 99 78 75 75 86 86 71 72 62 70 65 99 100 100 98 83 68 69 75 57 73 68 78 72 71 48 58 56 56 57 59 59 56 59
89 84 86 81 86 89 92 99 97 86 94 86 74 73 74 71 69 71 68 76 93 98 88 97 99 100 91 78 75 62 54 51 62 56 49 50 43 50 56 56 58 61 57 58
87 82 84 88 89 91 91 97 82 96 98 97 74 85 76 68 78 79 83 90 96 96 92 86 94 98 97 95 81 70 61 59 64 65 57 53 50 51 53 56 57 60 62 62
80 82 90 94 89 83 77 78 64 88 93 98 81 82 74 72 79 68 77 87 92 87 82 98 93 89 94 92 98 79 60 63 71 73 51 49 45 43 51 56 61 64 65 65
80 89 93 87 79 69 78 88 80 88 92 91 98 72 77 71 74 78 80 83 85 81 82 80 69 64 77 99 93 64 54 54 58 51 50 48 48 50 57 61 67 68 64 64
86 93 86 78 68 71 78 82 86 91 96 94 93 85 78 83 85 85 84 84 87 85 88 86 72 62 77 95 83 51 52 64 60 60 54 71 69 69 71 69 70 68 67 62
82 82 79 71 69 75 80 76 85 96 96 86 97 92 83 94 96 88 81 80 85 87 88 84 82 70 71 92 58 51 53 75 81 72 62 60 66 70 70 68 68 66 67 69
72 76 83 72 72 86 78 90 89 86 97 97 95 100 99 99 94 99 93 84 95 75 97 86 76 84 90 68 66 56 44 97 100 82 68 70 72 71 72 72 72 75 80 83
80 87 83 86 76 85 89 100 98 90 87 86 94 92 97 91 91 98 98 98 97 100 86 70 84 89 60 57 56 73 76 89 99 86 78 76 75 75 79 83 87 88 88 88
71 78 68 72 82 96 97 99 95 98 96 97 93 97 96 81 97 97 99 98 98 99 93 91 98 99 98 94 75 91 95 100 100 76 73 78 82 90 94 99 99 95 92 90
50 51 73 81 97 96 92 99 93 95 98 97 99 91 84 91 97 97 98 98 100 98 99 99 99 100 100 99 92 88 86 96 97 90 94 98 95 95 98 98 97 97 99 99
57 48 67 80 82 73 80 87 85 92 86 84 90 91 84 87 96 99 100 100 94 100 100 99 100 98 97 98 99 99 100 100 100 99 95 92 90 86 81 79 78 81 85 92
61 51 50 82 94 88 93 92 92 72 81 67 88 98 91 84 99 99 100 98 99 98 98 99 99 100 91 94 99 98 99 99 99 100 99 88 76 67 60 53 53 57 62 69
64 64 59 85 76 82 70 65 60 56 62 82 91 93 98 96 99 98 99 99 98 98 97 98 100 99 99 91 89 99 98 98 99 98 99 90 47 42 40 37 38 42 50 56
67 70 72 76 73 76 79 72 66 72 66 79 93 95 98 92 99 98 98 98 97 98 98 100 100 99 99 98 93 82 73 62 60 62 58 44 34 27 21 18 18 20 29 37
69 69 71 84 84 74 69 72 68 74 67 95 84 90 90 96 99 99 97 98 97 100 99 96 98 100 98 96 81 65 41 33 59 80 67 85 84 45 17 15 15 16 19 24

GFSNW_850_rhum_048.txt.gz
RH
54 57 54 37 22 29 52 74 95 89 81 99 98 96 81 60 56 53 55 48 53 56 50 55 63 72 61 67 64 70 57 86 94 93 81 79 81 84 71 90 88 82 83 63
57 53 52 37 23 42 67 80 86 99 99 99 88 65 62 61 58 55 55 49 48 48 53 62 64 61 52 55 53 65 58 84 98 93 78 78 97 93 75 76 78 84 80 57
59 54 53 45 23 18 69 79 93 86 98 85 81 80 64 66 60 58 48 49 46 48 52 46 64 64 57 51 51 49 52 74 76 82 70 82 99 93 82 86 98 73 81 53
60 56 52 49 42 25 59 69 92 88 94 74 75 76 74 66 75 60 52 53 51 53 56 50 65 66 61 54 53 53 57 80 72 64 65 72 74 81 83 93 73 81 59 59
61 62 60 52 49 38 34 65 83 82 85 76 74 77 78 82 68 62 64 58 63 50 67 56 59 64 64 61 59 57 70 89 80 79 60 69 74 72 81 77 78 77 64 67
66 70 68 63 56 49 58 67 81 93 80 55 70 62 59 65 69 70 68 72 65 67 67 60 55 48 47 52 65 70 74 89 89 85 71 66 76 72 71 71 68 75 77 54
73 72 77 75 68 62 61 60 66 59 70 64 62 42 45 55 61 74 68 79 61 71 62 51 48 47 53 56 58 62 82 82 89 93 75 91 54 50 57 58 56 58 58 53
74 78 82 86 78 71 70 70 64 75 81 69 54 56 56 61 68 79 73 78 78 70 62 69 70 73 60 57 60 61 65 80 91 93 96 67 51 60 64 67 62 52 59 56
82 82 84 86 82 73 74 73 72 74 85 84 73 67 63 75 69 76 80 74 79 72 86 83 80 89 72 75 66 56 58 59 75 88 77 93 54 53 49 54 81 56 51 56
89 89 86 85 78 76 74 75 84 75 85 78 74 73 70 62 62 64 72 55 71 82 92 88 87 77 63 83 82 80 74 74 86 88 94 76 52 47 50 77 66 60 52 51
84 88 86 85 85 89 85 87 92 90 88 81 81 79 80 80 68 72 61 78 83 95 95 92 87 83 69 69 68 78 83 84 93 88 94 84 48 60 68 61 61 61 57 50
86 82 84 83 88 91 91 97 98 94 92 84 79 78 73 78 89 78 67 80 82 99 100 99 98 96 79 73 76 67 76 71 82 76 74 45 45 56 51 57 59 58 57 55
92 81 81 83 90 92 89 94 92 96 100 77 70 78 81 80 76 77 76 86 91 88 87 97 98 100 93 94 79 65 59 57 66 63 53 55 44 51 54 56 57 56 56 58
71 74 80 89 94 93 86 72 78 99 97 91 78 78 76 75 82 88 82 79 82 92 90 84 93 97 95 90 93 87 66 60 64 69 59 55 51 46 48 57 57 58 61 59
68 72 84 91 93 88 72 71 81 81 88 96 80 78 72 68 77 80 80 94 88 93 87 99 96 84 94 91 97 96 65 69 71 70 52 50 42 40 44 56 56 59 61 63
63 71 77 82 78 74 88 89 90 87 86 78 95 67 75 77 78 78 78 80 87 85 83 85 75 67 92 99 91 70 43 54 78 81 63 59 61 43 44 56 60 64 66 65
53 60 69 70 67 81 83 82 81 88 84 80 86 83 76 84 88 83 82 84 86 84 85 93 80 68 77 95 92 49 45 40 45 65 82 78 68 57 55 63 67 70 69 67
40 54 59 59 78 82 77 78 97 93 83 79 95 91 76 92 94 95 82 83 90 92 90 90 92 75 72 91 62 52 45 46 49 54 86 91 68 72 70 72 72 70 67 66
40 51 55 64 74 81 84 91 91 90 91 83 85 100 97 93 92 98 96 93 96 80 96 90 82 83 92 63 55 60 53 68 64 56 100 96 78 77 74 71 70 70 71 74
40 56 62 69 74 86 88 98 98 86 80 78 83 90 99 87 93 98 99 98 98 100 86 78 88 89 60 86 95 76 85 98 95 99 99 95 88 79 77 77 78 82 84 85
38 43 56 72 82 94 98 97 93 94 87 98 93 94 93 80 95 96 98 98 98 98 92 87 98 98 99 99 100 97 100 97 99 100 100 98 87 83 84 93 96 93 90 89
29 39 61 71 84 96 88 100 87 94 92 94 97 96 89 90 94 96 96 99 96 94 97 97 98 100 100 99 98 98 96 99 100 100 100 100 99 99 100 99 97 94 94 95
35 38 56 67 74 55 57 63 74 82 77 79 87 89 78 86 92 99 100 100 96 99 99 99 99 100 100 99 98 98 99 100 100 100 100 100 98 92 88 84 80 76 76 79
46 42 53 74 81 80 90 86 84 66 77 68 85 97 98 90 98 97 99 85 100 98 96 99 96 100 100 100 98 98 98 98 99 99 99 99 87 74 62 54 48 45 50 53
55 52 51 86 73 92 82 75 62 59 59 73 85 83 96 91 100 95 99 99 97 97 96 93 98 100 100 98 99 98 98 98 98 98 98 98 89 58 47 37 25 26 34 39
58 64 71 79 71 60 70 69 66 65 65 67 91 80 92 87 99 99 97 96 93 90 99 89 98 91 78 96 99 97 88 65 91 96 97 96 54 27 20 18 18 19 25 30
62 69 68 74 74 66 61 66 68 72 67 90 92 99 87 92 95 99 96 93 92 86 77 67 56 50 46 59 96 97 76 46 67 98 98 98 98 96 45 23 22 23 26 27

GFSNW_850_rhum_051.txt.gz
RH
48 48 48 43 21 16 58 80 97 97 100 99 95 98 84 62 57 55 57 50 54 56 62 75 74 91 73 69 72 80 68 82 91 86 79 75 83 86 87 90 93 89 86 74
50 46 46 44 38 19 64 80 91 98 99 98 93 76 63 63 62 58 57 53 51 49 54 71 66 64 59 69 66 69 67 87 97 97 90 83 98 88 83 74 81 87 89 67
50 46 45 44 40 30 68 80 91 87 98 92 81 86 78 64 62 60 51 54 48 50 53 59 68 67 58 54 53 56 52 77 76 84 71 86 97 89 92 95 99 81 75 61
52 48 46 44 44 39 62 70 94 89 93 80 80 76 82 74 73 61 58 58 62 57 57 57 72 68 61 56 54 62 59 82 78 69 64 79 86 89 81 98 93 87 64 66
54 55 50 43 44 44 40 50 65 84 77 72 76 74 91 83 79 71 68 67 74 54 68 63 66 68 65 60 60 62 70 89 80 82 61 77 78 77 86 79 79 82 75 76
58 56 53 54 49 47 54 62 77 93 66 60 71 56 62 64 65 73 70 79 76 72 71 70 62 53 51 53 66 72 73 89 88 83 78 66 77 70 72 79 79 78 88 65
60 56 57 59 58 59 68 68 68 53 65 67 57 56 56 61 70 82 73 84 76 76 72 59 52 52 57 57 64 66 78 80 86 92 76 87 54 49 58 65 56 71 74 62
65 64 64 65 62 67 75 67 69 70 83 77 65 70 65 60 64 78 80 83 70 77 69 68 70 78 62 58 62 70 66 83 93 92 97 69 46 62 65 66 61 56 60 59
72 74 70 68 66 69 73 73 69 74 76 86 76 75 66 81 75 67 79 72 76 75 87 83 78 91 70 76 69 58 63 65 76 92 77 92 53 58 52 53 82 56 58 56
74 77 75 73 75 77 77 81 75 72 77 83 76 79 77 69 73 71 70 60 72 80 88 97 91 83 65 83 77 83 81 79 92 86 95 83 55 48 50 78 61 65 63 58
82 77 79 75 80 84 85 91 95 86 85 91 84 80 75 76 73 76 65 84 85 96 94 96 88 90 74 73 70 77 83 87 92 89 95 90 46 59 67 58 61 62 59 56
87 82 74 75 79 82 86 90 99 99 90 84 79 80 79 80 89 76 70 85 96 99 100 98 97 87 92 77 78 71 79 71 81 81 76 48 42 55 50 56 61 60 60 54
74 71 72 79 85 80 81 77 82 99 89 73 73 81 79 82 79 84 72 89 91 90 87 94 96 99 90 93 87 72 60 61 70 67 55 58 44 40 42 54 58 60 56 58
62 64 68 77 78 77 78 65 88 97 90 82 77 75 72 80 87 87 80 84 80 81 78 85 93 93 87 87 90 93 74 69 69 74 61 52 46 48 44 44 54 58 59 58
58 61 62 66 68 71 61 71 80 85 90 86 68 75 76 72 73 75 86 99 91 84 84 97 93 85 93 89 93 97 64 67 82 78 84 87 68 58 59 54 50 57 60 62
58 54 55 57 48 57 72 87 89 90 88 74 88 70 74 80 84 83 81 89 93 84 80 85 79 74 92 96 93 65 52 61 68 75 50 56 49 56 58 57 58 60 63 66
44 49 44 41 51 56 65 85 91 97 86 80 75 77 75 86 88 86 82 84 86 83 84 91 85 71 79 94 94 48 39 41 48 46 50 51 40 72 69 75 68 65 67 67
42 35 41 49 52 61 73 78 82 75 83 84 94 87 74 90 93 95 83 86 90 91 92 93 96 79 75 87 65 51 60 76 69 62 69 79 67 50 84 78 78 73 71 69
38 38 42 48 56 63 74 73 78 81 85 81 82 99 97 85 92 99 97 93 96 85 94 91 84 83 92 64 89 98 99 100 83 94 99 90 100 95 94 85 79 76 72 72
39 43 46 57 64 69 76 87 98 97 83 80 82 99 98 90 87 94 99 98 93 100 84 83 88 87 70 97 99 100 99 100 100 100 98 99 98 100 99 96 80 79 80 82
35 38 55 69 76 82 93 91 90 91 84 97 96 94 90 78 97 94 96 97 96 99 90 85 97 97 96 99 99 98 99 100 100 100 99 100 100 100 100 97 98 95 90 88
27 35 56 72 82 79 73 99 78 88 81 92 95 96 92 88 96 98 98 99 99 96 91 96 97 94 99 100 98 98 98 99 100 100 100 100 100 100 100 100 100 100 97 94
32 35 54 58 61 50 42 42 69 75 72 86 80 90 81 82 94 98 100 97 95 99 98 97 96 96 98 100 96 91 98 98 99 100 100 100 100 100 100 93 87 83 79 76
34 33 48 63 73 71 85 78 78 64 75 63 82 96 99 96 98 94 98 86 99 97 95 90 95 89 98 76 91 94 93 98 98 98 99 98 99 96 80 57 53 46 48 48
40 39 39 85 76 96 78 74 63 59 57 67 82 81 82 83 96 93 97 95 95 92 89 91 67 72 74 59 50 89 95 92 96 98 98 98 98 85 53 40 22 26 36 36
46 56 71 84 68 74 82 72 68 64 64 72 88 87 88 74 97 85 94 100 94 87 94 75 70 62 60 51 39 48 99 92 70 95 98 98 97 95 32 25 24 24 25 23
52 67 59 57 56 58 62 60 65 68 63 82 92 100 84 87 94 94 91 96 89 86 77 62 52 50 44 38 36 47 93 99 88 85 97 98 97 98 96 62 25 22 23 25

GFSNW_850_rhum_054.txt.gz
RH
43 42 40 38 38 30 58 84 97 99 100 100 97 98 87 66 59 57 57 51 55 60 84 90 96 86 79 69 75 73 70 82 92 88 81 78 79 86 81 92 87 92 88 65
42 41 40 39 38 32 54 79 99 97 98 97 91 82 69 65 63 60 58 55 54 51 57 73 69 66 67 72 64 70 70 88 98 96 82 84 91 86 79 80 85 93 91 73
42 40 40 39 38 37 46 74 93 91 100 97 84 86 87 68 63 60 53 55 51 52 57 66 72 69 62 60 59 60 58 81 77 84 70 85 96 79 76 87 98 83 77 66
41 42 43 42 38 37 36 58 93 90 95 86 80 81 83 86 86 67 59 61 75 60 59 63 74 69 63 59 68 75 70 94 78 69 62 84 89 87 87 96 82 88 62 64
43 44 46 44 40 38 38 47 63 86 72 66 76 64 86 78 73 82 79 82 81 60 74 71 66 68 66 63 60 71 71 92 79 82 68 83 85 83 89 83 81 84 81 84
45 47 49 48 42 38 48 59 71 87 65 66 69 54 56 65 72 74 74 82 78 76 86 88 73 63 56 56 67 75 73 90 88 81 76 71 84 76 80 81 82 73 85 63
49 52 53 52 47 44 47 57 60 52 66 63 57 67 59 64 74 84 76 76 76 79 76 65 62 56 62 60 68 66 79 80 84 88 76 74 46 47 58 68 63 73 76 67
54 57 58 56 54 52 48 55 61 66 85 77 70 72 70 62 61 75 86 85 68 85 73 68 70 77 64 62 63 69 66 80 93 90 95 67 44 62 65 66 62 57 63 60
62 63 64 61 61 58 56 60 59 66 76 90 83 78 71 81 78 72 76 73 74 78 85 83 77 88 72 78 73 65 64 69 76 92 86 85 49 58 55 54 78 54 64 68
63 70 67 69 71 64 60 61 57 58 79 88 81 85 84 76 78 76 78 61 73 86 85 92 93 87 65 82 72 83 83 81 92 89 89 82 59 52 51 76 58 60 66 66
70 71 71 73 76 70 58 65 68 63 80 91 83 79 75 78 75 77 64 88 86 97 91 95 94 92 81 77 69 77 84 90 94 91 93 92 48 58 67 55 58 62 62 63
76 72 70 76 77 70 59 61 69 66 71 80 81 80 81 80 86 78 69 90 98 99 99 94 92 79 96 84 80 68 82 73 78 81 77 50 45 55 46 51 55 57 62 60
74 68 71 85 79 68 58 61 65 57 66 72 76 80 77 83 82 86 73 84 97 86 82 91 94 96 98 88 90 91 64 64 78 69 56 58 52 53 58 62 63 62 61 57
65 63 70 79 72 64 58 56 66 66 69 74 71 71 69 75 83 86 81 82 78 79 72 84 92 88 85 88 91 91 80 81 78 80 64 67 56 65 63 55 57 64 67 61
58 61 67 67 62 53 60 58 63 66 66 77 68 75 79 80 76 76 82 97 92 82 82 96 95 85 90 88 86 91 73 77 86 90 96 74 61 47 43 46 60 68 67 67
56 64 63 50 51 55 57 64 63 64 60 58 85 72 77 83 86 86 84 92 96 84 84 85 80 75 88 88 82 59 48 48 48 54 62 65 59 52 42 54 51 61 70 71
57 54 49 53 55 56 56 62 66 62 61 63 72 77 73 87 90 88 84 87 87 84 86 89 85 72 79 95 88 51 54 79 92 89 90 70 67 72 70 46 37 66 73 78
50 50 53 60 61 59 54 60 63 66 66 69 91 81 77 84 94 93 89 89 91 91 92 92 93 79 78 84 62 66 92 99 98 96 95 98 99 89 83 92 72 87 82 79
55 59 57 54 56 58 67 62 65 55 61 70 78 98 95 76 91 99 99 95 92 89 92 91 85 84 93 86 88 99 100 100 100 98 99 99 100 100 99 98 99 99 93 80
57 59 53 54 62 60 61 69 69 66 69 72 92 99 96 83 81 86 99 96 96 100 84 86 85 86 72 80 100 99 99 99 100 100 97 98 98 99 99 99 100 100 100 95
58 49 57 66 70 62 64 83 79 77 81 96 92 94 93 87 98 98 92 99 98 97 96 94 96 94 83 95 100 100 100 99 100 100 100 100 100 99 99 100 100 100 100 100
40 42 58 69 68 59 59 94 72 82 68 88 94 91 88 84 91 98 99 100 98 96 97 97 96 92 84 74 76 77 100 100 99 99 100 99 99 100 99 99 100 99 99 100
42 41 50 47 53 47 33 31 69 69 75 79 68 70 79 88 97 95 99 99 98 99 98 93 89 88 67 63 53 45 50 96 96 95 96 97 97 99 100 98 92 78 76 68
32 29 51 62 66 62 76 70 75 52 67 70 84 94 98 99 99 93 95 84 99 99 99 92 93 58 70 60 51 52 39 50 99 93 97 97 98 98 98 68 42 40 45 46
33 26 38 76 83 92 72 71 58 57 58 74 83 83 88 90 85 92 89 76 98 94 87 92 62 74 50 42 43 41 36 37 81 97 95 98 97 98 94 71 75 49 28 36
40 47 76 97 74 99 91 64 62 57 65 76 86 94 95 88 92 80 83 89 96 84 94 77 61 42 38 47 50 48 43 50 65 98 96 97 98 98 97 45 30 26 27 29
46 70 55 47 42 45 56 53 56 62 65 79 89 69 60 82 93 90 82 89 88 79 78 63 48 42 47 50 54 52 53 64 79 98 99 97 98 97 97 97 82 47 29 32